CZ-6A DEB

Satellite information

Favourite Embed

Satellite Type and Status

DEBRISIN ORBIT

Key statistics

Satellite CZ-6A DEB at a glance.

Uptime

910

Days in orbit

Revolutions

≈ 14.8

Per day

Orbit

SSO

Sun Synchronous Orbit

Inclination

98.6

Latest

Satellite identification and parameters

Extended collection of information and parameters for CZ-6A DEB.

Object identification

Identified? True

Debris? True

Object name: CZ-6A DEB

International designator: 2022-151AAA

Object number (NORAD): 55878

Object ID (CCSDS): 55878

Country: PEOPLES REPUBLIC OF CHINA (PRC)

Current information (Y/N): Y

RCS size: SMALL

Orbital parameters

Period: 97.133 minutes

Inclination: 98.6459 deg

SMA: 6999.57 km

Apoapsis: 689.245 km

Periapsis: 553.625 km

RAAN: 187.565 deg

Eccentricy: 0.0096878

Argument of periapsis: 53.2793 deg

Mean anomaly: 307.7268 deg

Mean motion: 14.82503496 rev/day

Mean motion (dot): 0.00030751 rev/day2

B* drag term: 0.0035214 1/REarth

Two-line elements (TLE)

Creation date: May 9, 2025, 2:46 a.m.

Reference frame: TEME

Reference center: EARTH

Epoch: May 8, 2025, 8:20 p.m. UTC

TLE line 0: 0 CZ-6A DEB

TLE line 1: 1 55878U 22151AAA 25128.84757993 .00030751 00000-0 35214-2 0 9997

TLE line 2: 2 55878 98.6459 187.5650 0096878 53.2793 307.7268 14.82503496119731

Live tracking on map

Real-time ground track for satellite CZ-6A DEB.

In-orbit conjunctions

A list of the most updated potential collisions computed for object CZ-6A DEB.

Target Orbit TCA Probability of collision Miss distance Type
SPOT 5 SSO 2024-05-28 19:08:20 0.0002701387 722.0 (m) PAYLOAD

Associated space launch

Chinese satellite reported for atmospheric/ocean/environmental/spatial parameter research purposes, details TBD.

CZ-6A DEB was lifted into orbit during the mission ‘Long March 6A | Yunhai 3’, on board a Long March 6A space rocket.

The launch took place on Nov. 11, 2022, 10:52 p.m. from Launch Complex 9A.

For more information about the launch, click the button.

Launch to space Long March 6A | Yunhai 3
Long March 6A | Yunhai 3

Agency: N/A

Status: Launch Successful

Launch date: Nov. 11, 2022, 10:52 p.m. UTC

Rocket: Long March 6A

Launch pad: Launch Complex 9A

Location: Taiyuan Satellite Launch Center, People's Republic of China

...

Latest news about this satellite

There are no fresh news available about this satellite. Check back as we update our databases every day.


Newsletter sign-up

Weekly statistics, charts and insights to help you stay on top of the space industry.